Vorticity
5 5 5 6 5 5 5 5 5 5 5 5 5 5 5 5 5 5 5 5 5 5 5 4 3 3 2 2 4 9 16 23 29 33 33 31 28 25 22 20 19 17 16 15 14 13 12 11 9 8 6 4 2 0 -1 -2 -1 -0 1 1 1 1 2 2 3 3 2 5 6 6 6 5 3 1 -1 -2 -1 0 2 4 5 5 4 4 3 2 2 2 1 2 2 2 2 2 2 2 2 2 3 3 3 3 3
5 5 5 5 5 5 5 5 5 5 5 5 5 5 5 5 5 5 5 5 5 5 5 5 5 4 3 2 2 3 6 13 20 27 33 34 32 30 26 23 21 20 18 17 15 14 12 11 10 9 8 7 5 3 1 -1 -1 -2 -1 -1 0 2 4 2 2 2 2 3 4 6 7 7 6 4 2 0 -0 -0 0 2 3 4 5 4 4 3 2 2 2 1 2 2 2 2 2 2 2 2 2 3 3 3 3
5 5 5 5 5 5 5 5 5 5 5 5 5 5 5 5 5 5 5 5 5 5 5 5 5 5 4 4 3 2 1 4 10 17 25 31 34 34 32 28 25 23 21 19 17 15 14 12 11 11 10 9 8 6 4 2 -0 -1 -2 -2 0 2 5 4 4 3 2 1 2 3 5 7 8 7 5 4 2 1 -0 1 2 4 5 5 5 4 3 3 2 2 2 2 2 2 2 2 2 2 2 2 2 2 2
5 5 5 5 5 5 5 5 5 5 5 5 5 5 5 5 5 5 5 5 5 5 5 5 5 5 5 5 4 3 2 1 3 7 14 22 29 33 35 33 30 27 24 22 20 18 16 14 13 12 12 11 9 8 7 5 3 1 -0 -0 -1 -2 1 5 6 5 4 2 1 -0 -1 3 6 8 8 7 5 3 1 1 2 3 4 6 6 5 4 3 3 2 2 2 2 2 2 2 2 2 2 2 2 3 2
5 5 5 5 5 5 5 5 5 5 5 5 5 5 5 5 5 5 5 5 5 5 5 5 5 5 5 5 5 5 4 3 2 2 4 11 19 26 32 34 34 32 29 26 23 21 19 16 15 13 12 11 10 9 8 7 5 4 2 -1 -4 -5 -3 -1 3 6 8 6 3 0 -3 0 3 5 7 8 8 7 4 2 1 2 2 3 5 6 6 5 4 3 3 2 2 2 2 2 2 2 2 2 2 2 3
5 5 5 4 4 4 5 5 5 5 5 5 5 5 5 5 5 5 5 5 5 5 5 5 5 5 5 5 5 5 5 4 3 2 1 3 8 15 23 30 33 34 33 31 28 25 22 20 17 15 13 12 11 10 9 8 7 6 5 2 -0 -2 -3 -5 -4 0 6 8 7 5 2 2 1 2 4 6 7 8 9 5 3 1 0 1 2 5 7 7 6 5 4 3 3 2 2 2 2 2 2 2 1 1 3
5 5 5 4 4 4 4 4 4 4 5 5 5 5 5 5 5 5 5 5 5 5 5 5 5 5 5 5 5 5 5 5 5 4 2 1 2 5 12 20 27 32 34 34 32 30 27 24 21 18 16 13 12 11 10 9 8 7 6 5 3 2 -0 -4 -6 -6 -2 3 6 8 7 5 3 1 1 2 3 5 9 9 8 5 1 -1 -1 1 4 6 7 6 5 4 4 3 2 2 2 2 2 2 2 1 1
6 5 5 5 5 4 4 4 4 4 4 4 5 5 5 5 5 5 5 5 5 5 5 5 4 4 5 5 5 5 5 5 5 5 5 3 2 1 3 9 16 23 30 33 34 33 31 29 26 22 19 16 14 12 11 10 9 8 8 7 6 4 3 0 -3 -6 -9 -5 -1 3 6 6 5 4 1 0 1 3 5 8 9 10 11 6 2 -1 -1 3 6 7 7 6 5 4 3 2 2 2 2 2 2 2 1
6 6 5 5 5 5 4 4 4 4 4 4 4 4 5 5 5 5 5 5 5 5 5 5 5 5 4 4 5 5 5 5 5 5 5 5 4 2 1 2 7 13 20 27 31 33 34 32 30 27 24 20 17 15 13 11 11 10 9 8 8 7 5 4 1 -2 -6 -7 -7 -5 -0 2 4 5 6 4 3 3 4 3 3 8 22 24 17 7 -1 -0 2 5 7 7 6 5 4 3 3 2 2 2 2 2 2
6 6 6 6 5 5 5 5 5 4 4 4 4 4 4 4 5 5 5 5 5 5 5 5 5 5 5 5 4 4 5 5 5 5 5 5 5 4 3 2 2 4 10 17 24 29 32 33 33 31 29 25 22 18 15 13 12 11 10 9 9 8 7 6 4 3 1 -2 -5 -6 -5 -4 -1 3 7 6 5 5 5 0 -5 -3 14 30 32 25 12 4 1 1 4 7 7 7 6 5 4 3 3 2 2 2 2
6 6 6 6 6 6 5 5 5 5 5 4 4 4 4 4 4 4 4 5 5 5 5 5 5 5 5 5 5 5 5 5 5 5 5 5 5 5 5 4 2 2 3 7 14 21 27 31 33 33 32 30 26 23 19 16 14 12 11 10 9 9 8 7 6 5 4 2 -1 -3 -6 -6 -4 -2 2 5 5 4 6 2 -5 -10 -7 10 24 30 27 16 7 1 0 3 5 6 7 6 5 4 4 3 3 3 3
5 6 6 6 6 6 6 5 5 5 5 5 4 4 4 4 4 4 4 4 4 5 5 5 5 5 5 5 5 5 5 5 5 5 5 5 5 5 5 5 4 3 2 2 5 11 18 24 29 32 33 32 30 28 24 21 18 15 13 12 11 10 9 8 7 6 5 4 3 0 -2 -4 -5 -5 -4 1 2 2 4 3 -1 -6 -11 -11 -2 10 23 23 17 8 1 1 1 3 5 5 6 6 5 4 3 3 3
5 5 6 6 6 6 6 6 5 5 5 5 5 5 4 4 4 4 4 4 4 4 5 5 5 5 5 5 5 5 5 5 5 5 5 5 5 5 5 5 5 5 4 2 2 4 8 15 21 27 31 32 32 31 29 26 22 19 16 14 12 11 10 9 8 7 7 6 5 4 2 0 -2 -4 -5 -4 -4 -4 -4 0 1 0 -2 -10 -13 -11 -0 13 18 16 9 4 1 1 1 2 4 5 6 5 5 4 3
4 4 5 5 6 6 6 6 6 5 5 5 5 5 5 4 4 4 4 4 4 4 4 4 5 5 5 5 5 5 5 5 5 5 5 5 5 5 5 5 5 5 5 4 3 2 2 6 12 18 24 29 31 32 32 30 27 24 21 18 15 13 12 11 10 9 8 7 6 6 5 3 2 0 -2 -3 -4 -4 -4 -1 2 3 3 0 -4 -8 -10 -2 7 12 12 8 6 5 3 1 1 2 4 5 5 5 3
4 4 4 5 5 5 6 6 6 5 5 5 5 5 5 5 4 4 4 4 4 4 4 4 4 5 5 5 5 5 5 5 5 5 5 5 5 5 5 5 5 5 5 5 5 4 2 2 4 9 15 21 26 30 32 31 30 28 25 22 19 16 14 13 11 10 9 8 7 7 6 5 4 3 2 0 -1 -2 -3 -2 1 3 3 3 5 5 2 -1 0 3 5 5 6 9 12 10 6 2 0 3 5 6 4
4 4 4 4 4 5 5 5 5 5 5 5 5 5 5 5 4 4 4 4 4 4 4 4 4 4 4 5 5 5 5 5 5 5 5 5 5 5 5 5 5 5 5 5 5 5 4 3 2 3 6 12 18 24 28 30 31 30 29 26 24 21 18 16 14 12 11 10 9 8 7 6 5 4 4 3 1 0 -1 -2 -1 -1 -1 1 5 9 12 9 5 2 1 -2 -1 4 14 21 20 13 3 1 2 5 6
5 4 4 4 4 4 4 5 5 5 5 5 5 5 5 4 4 4 4 4 4 4 4 4 4 4 4 4 4 4 5 5 5 5 5 5 5 5 5 5 5 5 5 5 5 5 5 5 4 2 2 4 9 14 21 26 29 30 31 29 27 25 22 19 17 15 13 12 10 9 8 7 7 6 5 4 3 2 2 0 -2 -4 -4 0 2 4 8 10 9 6 3 -0 -3 -3 3 18 28 28 18 7 2 2 5
5 5 4 4 4 4 4 4 4 5 5 5 5 5 5 4 4 4 4 4 4 4 4 4 4 4 4 4 4 4 4 4 4 5 5 5 5 5 5 5 5 5 5 5 5 5 5 5 5 4 3 2 3 6 11 17 23 27 30 30 29 28 26 23 21 18 16 14 12 11 10 9 8 7 6 5 5 4 3 2 0 -2 -3 -1 -1 -2 -2 1 3 3 3 3 1 -1 -3 5 17 29 32 21 10 3 1
6 5 5 5 4 4 4 4 4 4 5 5 5 5 5 5 4 4 4 4 4 4 3 3 3 3 3 3 3 3 4 4 4 4 4 4 5 5 5 5 5 5 5 5 5 5 5 5 5 5 5 3 3 3 4 8 14 19 25 28 29 29 29 27 25 22 20 17 15 14 12 11 9 8 7 7 6 5 5 4 3 1 -1 -3 -4 -5 -7 -7 -5 -3 -1 2 3 3 0 -1 3 12 26 29 23 12 3
7 6 6 5 5 5 4 4 4 4 4 4 5 5 5 5 4 4 4 4 4 3 3 3 3 3 3 3 3 3 3 3 3 3 3 4 4 4 4 5 5 5 5 5 5 5 5 5 5 5 5 5 4 3 2 3 6 11 16 21 25 28 29 29 27 26 23 21 19 17 15 13 11 10 9 8 7 6 6 5 4 3 0 -3 -4 -5 -5 -6 -7 -7 -5 -3 -1 0 2 -1 -2 -1 7 20 26 24 14
7 7 6 6 6 5 5 5 5 4 4 4 4 4 4 5 5 4 4 4 4 4 3 3 3 3 3 3 3 3 3 3 3 3 3 3 3 3 4 4 4 4 5 5 5 5 5 5 5 5 5 5 5 5 4 3 3 4 8 13 18 23 26 28 28 28 27 25 23 20 18 16 14 12 11 10 9 8 7 6 5 4 3 0 -1 -1 -1 -1 -2 -3 -5 -5 -5 -4 -2 -2 -4 -5 -4 5 16 24 24
7 7 7 7 6 6 6 5 5 5 5 5 4 4 4 4 5 4 4 4 4 4 4 3 3 3 3 3 3 3 2 2 2 2 2 2 3 3 3 3 3 4 4 4 5 5 5 5 5 5 5 5 5 5 5 4 3 3 3 6 10 15 20 24 26 28 28 27 26 24 22 20 18 16 14 12 11 9 8 7 6 5 5 4 3 3 3 3 2 2 0 -2 -3 -4 -4 -4 -5 -6 -8 -5 2 11 20
8 7 7 7 7 7 6 6 6 6 5 5 5 5 5 5 5 5 5 5 4 4 4 4 4 3 3 3 3 3 2 2 2 2 2 2 2 2 2 3 3 3 3 4 4 4 4 5 5 5 5 5 5 5 5 5 5 4 3 3 4 7 11 16 21 24 27 28 28 27 25 24 22 19 17 15 13 12 11 9 8 7 6 5 5 4 4 4 4 4 4 3 2 1 -0 -2 -4 -5 -6 -7 -6 -2 6
8 8 8 7 7 7 7 7 7 6 6 6 6 5 5 5 5 5 5 5 5 5 4 4 4 4 3 3 3 3 3 2 2 2 2 2 2 2 2 2 2 2 3 3 3 3 4 4 5 5 5 5 5 5 5 5 5 5 4 3 3 3 4 8 13 17 22 25 27 27 27 26 25 23 21 19 17 15 14 12 11 9 8 7 5 4 4 4 4 5 5 5 6 7 8 6 3 -0 -2 -3 -4 -6 -5
7 8 7 7 7 7 7 7 7 7 7 6 6 6 6 6 5 5 5 5 5 5 5 5 5 4 4 4 4 3 3 3 2 2 2 2 2 2 2 2 2 2 2 2 3 3 3 3 4 4 5 5 5 5 5 5 5 5 5 5 4 3 3 3 6 9 14 18 22 25 27 27 27 26 25 23 21 19 17 16 14 13 11 10 8 6 4 4 5 5 4 5 6 9 15 18 14 8 3 3 1 -1 -4
7 7 7 7 7 7 7 7 7 7 7 7 7 7 7 6 6 6 6 5 5 5 5 5 5 5 5 5 4 4 4 3 3 3 2 2 2 2 2 2 2 2 2 2 2 3 3 3 3 4 4 4 5 5 5 5 6 6 6 6 5 5 4 3 3 4 6 10 15 19 23 25 26 26 26 25 24 22 20 19 17 16 15 13 11 9 7 6 5 5 4 4 3 5 10 18 20 16 9 6 5 3 0
7 7 7 7 7 7 7 7 7 7 7 7 7 7 7 7 7 7 6 6 6 6 5 5 5 5 5 5 5 5 4 4 4 3 3 3 2 2 2 2 2 2 2 2 2 3 3 3 3 3 4 4 4 4 5 5 5 6 6 6 6 6 5 4 3 3 3 4 7 11 15 19 22 25 26 26 25 24 23 21 20 19 17 16 15 13 11 9 8 6 5 4 2 0 -2 7 15 19 15 10 7 5 3
7 7 7 7 7 7 7 7 7 7 7 7 7 7 7 7 7 7 7 7 6 6 6 6 6 6 6 6 6 5 5 5 5 4 4 3 3 3 2 2 2 2 2 2 2 3 3 3 3 3 4 4 4 4 4 5 5 5 6 6 6 6 6 5 5 4 3 3 3 5 8 12 16 20 23 24 25 25 25 24 22 21 20 19 18 17 15 14 12 10 8 6 3 -2 -11 -6 6 17 21 14 10 7 5
7 7 7 7 7 7 7 7 7 7 7 7 7 7 7 7 7 7 7 7 7 7 7 6 6 6 6 6 6 6 6 5 5 5 5 4 4 4 3 3 3 3 3 3 3 3 3 3 3 4 4 4 4 4 4 4 5 5 5 6 6 6 6 6 6 5 5 4 3 3 3 5 8 12 16 20 22 24 25 25 24 23 22 21 19 18 18 17 16 14 12 10 8 2 -9 -15 -6 8 22 18 12 7 5
7 7 7 7 7 7 7 7 7 7 7 7 7 7 7 7 7 7 7 7 7 7 7 7 7 7 6 6 6 6 6 6 5 5 5 5 5 5 4 4 4 3 3 3 3 3 3 3 3 3 4 4 4 4 4 4 4 5 5 5 5 6 6 6 6 6 6 5 5 4 3 3 3 5 8 12 16 20 22 24 25 25 24 23 22 20 19 19 18 18 16 14 13 10 3 -13 -18 -11 7 12 11 7 4
7 7 7 7 7 7 7 7 7 7 7 7 7 7 7 7 7 7 7 7 7 7 7 7 7 7 7 6 6 6 6 6 6 6 5 5 5 5 5 5 4 4 4 4 4 4 4 3 3 4 4 4 4 4 4 4 4 4 5 5 5 5 6 6 6 6 6 6 6 5 4 4 3 3 3 5 9 12 16 20 22 24 24 24 24 22 21 20 19 19 19 18 16 15 14 2 -12 -21 -18 -5 1 3 3
7 7 7 7 7 7 7 7 7 7 7 7 7 7 7 7 7 7 7 7 7 6 6 6 6 6 6 6 6 6 6 6 6 6 5 5 5 5 5 5 5 5 5 5 5 4 4 4 4 4 4 4 4 4 4 4 4 5 5 5 5 5 5 6 6 6 6 6 6 6 6 5 4 4 3 3 4 5 8 12 16 19 22 23 24 24 23 22 21 20 20 19 18 18 18 15 6 -4 -12 -9 -5 -1 1
7 7 7 7 7 7 7 7 7 7 7 7 7 7 7 7 7 6 6 6 6 6 6 6 6 6 6 6 6 6 6 6 6 6 6 6 5 5 5 5 5 5 5 5 5 5 5 5 4 4 4 4 4 4 4 5 5 5 5 5 5 5 5 5 5 6 6 6 6 6 6 6 5 5 4 3 3 3 3 5 8 12 15 18 21 23 23 23 23 22 21 20 20 19 18 18 17 14 10 7 5 4 4
7 7 7 7 7 7 7 7 7 7 7 7 7 7 7 7 7 6 6 6 6 6 6 6 6 6 6 6 6 6 6 6 6 6 6 6 6 6 5 6 5 5 5 5 5 5 5 5 5 5 4 4 4 4 5 5 5 5 5 5 5 5 5 5 5 5 6 6 6 6 6 6 6 6 5 5 4 4 3 3 4 5 8 11 14 18 20 22 23 23 23 22 22 21 20 19 18 18 18 18 16 14 11
8 8 8 8 8 8 8 7 7 7 7 7 7 7 7 7 7 7 7 6 6 6 6 6 6 6 6 6 6 6 6 6 6 6 6 6 6 6 6 6 6 6 6 6 6 5 5 5 5 5 5 5 5 5 5 5 5 5 5 6 5 5 5 5 5 5 5 5 6 6 6 6 6 6 6 6 5 5 4 4 3 3 3 5 7 10 13 17 19 21 23 23 23 23 22 21 20 19 18 18 18 18 16
8 8 8 8 8 8 8 8 8 8 8 8 7 7 7 7 7 7 7 7 7 7 7 6 6 6 6 6 6 6 6 6 6 6 6 6 6 6 6 6 6 6 6 6 6 6 6 5 5 5 5 5 5 5 5 5 5 6 6 6 6 6 6 6 6 5 5 5 5 6 6 6 7 7 7 6 6 6 5 5 4 4 3 3 3 5 7 9 12 16 18 21 22 23 23 23 22 21 19 18 18 18 18
8 8 8 8 8 8 8 8 8 8 8 8 8 8 8 8 7 7 7 7 7 7 7 7 7 7 7 7 7 7 7 6 6 6 6 6 6 6 6 6 6 6 6 6 6 6 6 6 6 5 5 5 5 5 5 5 6 6 6 6 6 6 6 6 6 6 6 6 6 6 6 6 6 7 7 7 7 6 6 6 5 5 4 4 3 3 3 4 6 8 11 14 17 20 22 22 23 22 21 20 19 19 18
8 8 8 8 8 8 8 8 8 8 8 8 8 8 8 8 8 8 8 8 8 8 7 7 7 7 7 7 7 7 7 7 7 7 7 7 7 7 7 7 7 7 7 7 6 6 6 6 6 6 6 6 6 6 6 6 6 6 6 6 6 6 7 7 6 6 6 6 6 6 6 6 6 6 6 7 7 7 7 7 6 6 6 5 4 4 3 3 3 4 5 8 10 13 16 19 21 22 22 22 21 20 19
8 8 8 8 8 8 8 8 8 8 8 8 8 8 8 8 8 8 8 8 8 8 8 8 8 8 8 8 8 7 7 7 7 7 7 7 7 7 7 7 7 7 7 7 7 7 7 7 7 7 7 7 7 7 7 7 7 7 7 7 7 7 7 7 7 7 6 6 6 6 6 6 6 6 6 7 7 7 7 7 7 7 6 6 6 5 5 4 3 3 3 4 5 7 10 12 15 18 20 21 21 21 20
8 8 8 9 9 9 8 8 8 8 8 8 8 8 8 8 8 8 8 8 8 8 8 8 8 8 8 8 8 8 8 8 8 8 8 8 8 8 8 8 8 8 8 8 8 8 7 7 8 8 7 7 7 7 7 7 7 7 7 7 7 7 7 7 7 7 7 7 7 7 6 6 6 6 6 7 7 7 7 7 7 7 7 7 6 6 6 5 5 4 3 3 3 3 4 6 9 12 14 17 19 20 21
9 9 9 9 9 9 9 9 9 9 9 9 9 9 8 8 8 8 8 8 8 8 8 8 8 8 8 8 8 8 8 8 8 8 8 8 8 8 9 8 8 8 8 8 8 8 8 8 8 8 8 8 8 8 8 8 7 7 7 7 7 7 7 7 7 7 7 7 7 7 7 7 7 7 7 7 7 7 7 7 7 7 8 7 7 7 7 6 6 5 5 4 3 3 3 3 4 6 8 11 14 16 18
9 9 9 9 9 9 9 9 9 9 9 9 9 9 9 9 9 9 9 9 9 9 8 8 8 8 8 8 8 8 8 8 8 8 8 8 9 9 9 9 9 9 9 9 8 8 8 8 9 9 9 9 8 8 8 8 8 8 8 7 7 7 7 7 7 7 7 7 7 7 7 7 7 7 7 7 7 7 7 7 7 8 8 8 8 8 7 7 7 6 6 5 5 4 3 3 3 3 4 5 8 10 13
9 9 9 9 9 9 10 10 10 10 10 10 10 10 10 10 10 10 10 9 9 9 9 9 9 9 9 9 9 9 9 9 9 9 9 9 9 9 9 9 9 9 9 9 9 9 9 9 9 9 9 9 9 9 9 8 8 8 8 8 8 8 7 7 7 7 7 7 7 8 8 8 8 8 7 7 7 7 7 8 8 8 8 8 8 8 8 8 8 7 7 7 6 6 5 4 4 3 3 3 4 5 7
9 9 9 9 9 10 10 10 10 10 10 10 10 10 10 10 10 10 10 10 10 10 10 10 10 9 9 9 9 9 9 9 9 9 9 9 9 9 9 9 9 9 9 9 9 9 9 9 9 9 9 9 9 9 9 9 9 9 8 8 8 8 8 8 7 7 7 7 7 7 7 8 8 8 8 8 8 8 8 8 8 8 8 8 8 8 8 8 8 8 8 8 7 7 6 6 5 4 4 3 3 3 3
9 9 9 9 9 9 10 10 10 10 10 10 11 11 11 11 11 11 11 11 11 11 11 11 10 10 10 10 10 9 9 9 9 9 10 9 10 10 9 9 9 9 9 9 9 9 9 9 9 9 9 9 9 9 9 9 9 9 9 9 9 9 8 8 8 8 7 7 7 7 7 7 7 8 8 8 9 9 9 9 8 8 8 8 8 8 8 9 9 9 9 8 8 8 8 7 7 6 5 5 4 3 3
8 8 8 8 8 9 9 9 9 9 10 10 10 11 11 11 11 11 11 11 11 11 11 11 11 11 11 10 10 10 10 10 10 10 10 10 10 10 10 10 10 10 10 10 10 10 10 10 10 10 10 10 10 10 10 10 10 10 10 10 10 9 9 9 9 9 8 8 8 7 7 7 7 7 7 7 8 8 9 9 9 9 9 9 9 9 9 9 9 9 9 9 9 9 8 8 8 7 7 6 6 5 4
7 7 7 7 7 7 7 8 8 8 9 9 9 10 10 10 11 11 11 11 11 11 11 11 11 11 11 11 11 11 10 10 10 10 10 10 10 10 10 11 11 11 10 10 10 10 10 10 10 10 10 10 10 10 10 10 10 10 10 10 10 10 10 10 10 9 9 9 9 8 8 8 7 7 7 7 7 7 8 8 8 9 9 9 9 9 9 9 9 9 9 9 9 9 9 9 9 8 8 8 7 7 6
6 6 6 6 6 6 6 6 7 7 7 8 8 9 9 9 9 10 10 10 11 11 11 11 11 11 11 11 11 11 11 11 11 11 10 11 11 11 11 11 11 11 11 11 11 11 11 11 11 11 11 11 11 11 11 11 11 11 11 11 11 11 11 11 10 10 10 10 10 10 9 9 8 8 7 7 6 6 7 7 7 8 8 8 9 9 9 9 9 9 9 9 9 9 9 9 9 9 9 9 8 8 7
5 5 5 5 5 5 6 6 6 6 6 7 7 7 7 7 8 8 9 9 10 10 10 11 11 11 10 11 11 11 11 12 12 11 11 11 11 12 12 12 12 12 12 12 11 11 12 12 12 12 12 12 12 12 12 11 11 11 11 11 11 11 11 11 11 11 10 10 10 10 10 10 10 9 9 8 7 7 7 6 7 7 7 7 8 8 8 8 9 9 9 9 9 9 9 9 9 9 9 9 9 9 8
5 5 5 5 5 5 5 5 5 5 6 6 6 6 6 7 7 7 7 8 9 9 9 10 10 10 10 10 11 11 11 11 11 11 12 12 12 11 12 13 13 12 12 12 12 12 11 12 12 12 12 12 12 12 12 12 12 11 11 11 11 11 11 11 11 11 10 10 10 10 10 10 10 10 10 9 9 8 8 7 7 7 7 7 7 7 7 7 8 8 8 8 9 9 9 9 9 9 9 10 10 9 9
5 5 5 5 5 5 5 5 5 5 6 6 6 6 6 6 7 7 7 7 7 8 8 8 9 10 11 10 10 10 10 11 11 11 11 12 13 12 11 10 11 12 13 13 13 13 12 12 12 12 12 12 12 12 12 12 11 11 11 11 11 11 10 10 10 10 10 10 10 10 10 10 10 10 10 10 9 9 9 8 8 7 7 7 7 7 7 7 7 7 7 7 8 8 8 8 8 8 9 9 9 10 10
5 5 5 5 5 5 5 5 5 6 6 6 7 7 7 7 7 7 7 7 7 7 8 8 8 8 10 10 10 10 10 10 11 11 11 11 11 12 12 10 11 11 11 12 13 13 12 12 12 12 12 11 11 11 11 11 11 11 10 10 10 10 9 9 9 9 9 9 9 9 9 9 9 9 9 9 9 9 9 8 8 8 7 7 7 7 7 7 7 7 7 7 7 7 7 7 7 7 7 8 8 8 9
6 6 6 6 6 6 6 6 6 6 6 6 7 7 7 7 7 7 7 7 7 7 8 8 8 7 8 10 10 10 11 11 11 11 11 10 10 10 12 12 12 11 10 8 9 10 13 12 12 12 12 11 10 10 10 10 10 10 9 9 9 9 9 9 8 8 8 8 8 8 8 8 8 7 7 7 7 7 8 7 7 7 7 7 7 7 6 7 7 7 7 7 7 7 7 7 7 6 6 6 6 6 7
6 6 6 6 6 6 6 6 6 7 7 7 7 7 8 8 8 8 8 8 8 8 8 9 9 8 8 9 10 11 11 11 11 11 11 11 10 10 11 12 12 11 11 10 8 8 10 11 11 11 12 11 10 10 10 10 9 9 9 9 8 8 8 8 8 8 8 7 7 7 7 7 7 7 7 6 6 6 6 6 6 6 6 6 6 6 6 6 6 6 6 6 7 7 7 7 7 7 7 6 6 6 5
6 6 6 6 6 6 6 7 7 7 7 8 8 8 8 8 9 9 9 9 9 9 9 9 9 10 9 10 10 11 10 11 11 11 11 12 12 12 10 11 11 11 12 13 13 11 9 9 9 9 9 9 10 10 10 9 9 8 8 8 8 8 8 8 8 8 8 8 7 7 7 7 7 7 7 7 7 7 6 6 6 6 6 6 6 5 5 5 5 5 5 5 6 6 6 7 7 7 7 7 7 7 6
6 6 6 6 6 6 7 7 7 8 8 8 9 9 9 9 9 9 9 10 10 10 11 10 11 11 11 10 10 11 11 11 12 12 12 12 13 13 12 12 12 12 11 12 13 12 11 10 9 9 10 9 9 9 9 8 8 8 8 8 8 8 8 8 8 8 8 8 8 8 8 8 8 8 8 7 7 7 7 7 6 6 6 6 6 5 5 5 5 4 4 4 4 4 5 5 5 6 6 7 7 7 7
6 6 6 6 6 7 7 8 8 8 9 9 9 9 10 10 10 10 11 11 11 12 12 12 12 12 13 12 12 11 11 12 12 13 13 13 13 13 13 13 13 12 11 11 10 10 10 10 9 9 8 8 9 8 7 7 8 8 8 8 8 8 8 8 8 8 8 8 8 8 8 8 8 7 7 7 7 7 7 7 6 6 6 6 6 5 5 5 5 4 4 4 4 3 3 4 4 4 4 5 5 6 6
6 6 6 7 7 8 8 8 9 9 9 9 10 10 10 11 11 11 12 12 12 12 12 13 13 13 13 14 13 13 13 12 12 12 13 12 12 12 12 11 11 11 10 10 10 9 9 9 8 8 6 5 6 7 8 7 7 7 7 7 7 7 7 7 7 7 7 7 6 6 6 6 6 6 6 6 6 6 6 6 6 6 5 5 5 5 5 5 5 4 4 4 3 3 3 3 3 3 3 3 3 4 4
6 6 7 7 8 8 9 9 10 10 10 10 10 11 11 11 12 12 12 12 13 13 13 14 14 14 13 14 14 14 13 13 12 11 11 11 11 11 10 9 9 8 8 8 7 7 7 7 7 7 7 5 3 3 5 6 7 6 5 5 5 5 5 5 5 5 5 5 5 5 5 5 5 5 5 5 5 5 5 5 5 5 5 5 5 5 5 5 4 4 4 4 4 3 3 3 2 2 2 2 2 2 2
7 7 8 8 9 9 10 10 10 10 10 11 11 11 12 12 12 12 13 13 13 14 14 14 14 14 14 14 14 13 12 12 11 11 10 9 9 9 8 7 7 7 6 6 6 5 5 5 7 8 7 6 4 1 -2 -1 1 3 4 4 4 3 3 3 3 3 4 4 4 4 4 4 4 4 4 4 5 5 5 5 5 5 5 5 5 5 5 4 4 4 4 4 4 4 3 3 3 2 2 2 2 2 1
7 8 9 9 10 10 10 11 11 11 11 11 11 12 12 12 13 13 14 14 14 14 14 14 14 14 14 13 13 12 11 10 10 9 8 7 7 7 6 5 5 5 5 5 5 5 4 5 5 6 6 7 7 5 -0 -3 -4 -2 0 2 3 4 3 3 3 3 3 3 3 4 4 4 4 4 4 5 5 5 5 5 5 5 5 5 5 5 5 5 5 5 5 4 4 4 4 4 3 3 3 3 2 2 2
Height
5851 5850 5850 5850 5849 5849 5849 5848 5848 5848 5847 5847 5847 5847 5846 5846 5846 5846 5845 5845 5845 5844 5844 5843 5843 5843 5842 5842 5841 5841 5841 5840 5840 5840 5839 5839 5839 5839 5840 5841 5842 5844 5845 5847 5848 5849 5850 5850 5851 5853 5854 5855 5856 5857 5858 5859 5860 5861 5862 5863 5863 5863 5864 5864 5865 5866 5866 5866 5866 5866 5867 5869 5870 5871 5872 5873 5873 5873 5874 5874 5875 5876 5877 5878 5879 5880 5880 5881 5882 5882 5883 5884 5885 5885 5886 5886 5887 5887 5888 5888 5889 5889 5890
5850 5850 5849 5849 5849 5848 5848 5848 5847 5847 5847 5847 5846 5846 5846 5846 5845 5845 5845 5844 5844 5844 5843 5843 5843 5842 5842 5841 5841 5841 5840 5840 5839 5839 5839 5838 5838 5838 5838 5839 5840 5842 5843 5844 5846 5846 5846 5848 5849 5851 5852 5853 5854 5856 5856 5858 5859 5859 5860 5861 5862 5862 5862 5863 5863 5863 5864 5863 5864 5864 5866 5867 5868 5869 5870 5871 5871 5871 5871 5872 5873 5874 5875 5876 5876 5877 5878 5879 5880 5881 5881 5882 5882 5883 5884 5885 5885 5886 5886 5887 5887 5888 5888
5849 5849 5849 5848 5848 5848 5847 5847 5847 5846 5846 5846 5846 5845 5845 5845 5845 5844 5844 5844 5843 5843 5843 5842 5842 5842 5841 5841 5841 5840 5840 5839 5839 5838 5838 5838 5837 5837 5837 5838 5839 5840 5841 5841 5842 5843 5844 5845 5847 5849 5850 5851 5852 5853 5854 5856 5857 5857 5858 5859 5860 5860 5861 5861 5861 5861 5862 5861 5862 5863 5864 5865 5866 5867 5868 5868 5869 5869 5870 5871 5871 5872 5873 5873 5874 5875 5876 5877 5878 5879 5879 5880 5881 5881 5882 5883 5883 5884 5885 5885 5886 5886 5887
5849 5848 5848 5848 5847 5847 5847 5846 5846 5846 5846 5845 5845 5845 5844 5844 5844 5843 5843 5843 5842 5842 5842 5842 5841 5841 5841 5840 5840 5840 5839 5839 5838 5838 5838 5837 5837 5837 5836 5837 5837 5838 5838 5839 5840 5841 5841 5843 5845 5846 5847 5849 5850 5851 5851 5853 5854 5855 5856 5857 5858 5859 5860 5861 5861 5860 5859 5859 5860 5861 5862 5863 5864 5864 5866 5867 5867 5867 5868 5869 5870 5870 5872 5872 5872 5873 5874 5875 5876 5876 5877 5878 5879 5880 5880 5881 5881 5882 5883 5883 5884 5885 5885
5848 5848 5847 5847 5846 5846 5846 5846 5845 5845 5845 5844 5844 5844 5843 5843 5843 5843 5842 5842 5842 5841 5841 5841 5841 5840 5840 5840 5839 5839 5839 5838 5838 5838 5837 5837 5836 5836 5836 5836 5836 5836 5836 5837 5837 5838 5839 5841 5842 5844 5845 5845 5846 5847 5848 5850 5851 5852 5853 5855 5856 5856 5857 5858 5858 5858 5857 5856 5857 5858 5859 5861 5862 5862 5864 5865 5866 5866 5867 5868 5868 5868 5869 5871 5871 5871 5872 5873 5874 5875 5875 5876 5877 5878 5878 5879 5880 5881 5881 5881 5883 5884 5883
5847 5847 5846 5846 5846 5846 5845 5845 5845 5844 5844 5844 5843 5843 5843 5842 5842 5842 5841 5841 5841 5841 5840 5840 5840 5840 5839 5839 5839 5838 5838 5838 5837 5837 5837 5836 5836 5836 5835 5835 5835 5835 5835 5835 5836 5836 5837 5839 5840 5841 5841 5842 5842 5843 5845 5846 5847 5849 5850 5851 5852 5854 5855 5855 5855 5855 5856 5855 5856 5856 5857 5859 5860 5861 5862 5862 5863 5864 5865 5866 5866 5866 5867 5868 5869 5870 5871 5871 5872 5872 5873 5874 5875 5876 5876 5877 5878 5879 5879 5880 5881 5881 5881
5847 5846 5846 5846 5845 5845 5844 5844 5844 5843 5843 5843 5842 5842 5842 5841 5841 5841 5841 5840 5840 5840 5839 5839 5839 5839 5838 5838 5838 5838 5837 5837 5837 5836 5836 5836 5836 5835 5835 5834 5834 5834 5834 5834 5834 5835 5835 5836 5837 5838 5839 5839 5840 5841 5841 5842 5844 5845 5847 5848 5850 5851 5852 5853 5853 5853 5853 5854 5854 5854 5854 5856 5857 5859 5860 5860 5861 5861 5862 5863 5864 5864 5865 5866 5866 5867 5868 5869 5870 5870 5871 5872 5872 5873 5874 5875 5876 5877 5877 5878 5879 5880 5880
5846 5846 5845 5845 5844 5844 5844 5843 5843 5843 5842 5842 5841 5841 5841 5841 5840 5840 5840 5839 5839 5839 5839 5838 5838 5838 5837 5837 5837 5837 5836 5836 5836 5836 5836 5835 5835 5835 5834 5834 5833 5833 5833 5832 5833 5833 5833 5834 5835 5836 5836 5837 5838 5838 5839 5840 5841 5842 5844 5846 5847 5849 5850 5850 5851 5851 5851 5851 5852 5852 5852 5853 5854 5855 5856 5857 5858 5859 5860 5861 5862 5862 5862 5863 5864 5865 5866 5866 5867 5868 5869 5869 5870 5871 5872 5873 5874 5874 5875 5876 5877 5877 5878
5845 5845 5844 5844 5844 5843 5843 5843 5842 5842 5841 5841 5841 5841 5840 5840 5839 5839 5839 5838 5838 5838 5838 5837 5837 5837 5836 5836 5836 5836 5836 5835 5835 5835 5835 5834 5834 5834 5834 5833 5833 5832 5832 5832 5831 5831 5832 5832 5832 5833 5834 5835 5836 5836 5836 5837 5839 5840 5841 5843 5845 5846 5847 5848 5848 5849 5849 5850 5851 5851 5851 5851 5852 5853 5854 5855 5856 5856 5857 5858 5859 5860 5860 5860 5861 5862 5863 5864 5865 5866 5866 5867 5868 5868 5869 5870 5871 5872 5873 5874 5875 5875 5876
5844 5844 5844 5843 5843 5842 5842 5842 5841 5841 5841 5841 5840 5840 5839 5839 5839 5838 5838 5837 5837 5837 5837 5836 5836 5836 5836 5835 5835 5835 5835 5834 5834 5834 5834 5834 5833 5833 5833 5833 5832 5832 5832 5831 5831 5831 5830 5830 5831 5831 5832 5832 5833 5834 5834 5835 5836 5837 5838 5840 5841 5843 5844 5845 5846 5846 5847 5848 5848 5849 5850 5850 5850 5851 5851 5853 5854 5854 5855 5856 5856 5856 5856 5857 5858 5859 5860 5861 5862 5863 5864 5865 5865 5866 5867 5868 5869 5870 5871 5872 5872 5873 5874
5843 5843 5843 5842 5842 5842 5841 5841 5841 5841 5840 5840 5839 5839 5839 5838 5838 5837 5837 5836 5836 5836 5836 5835 5835 5835 5835 5834 5834 5834 5833 5833 5833 5833 5833 5832 5832 5832 5832 5832 5832 5831 5831 5831 5830 5830 5830 5829 5829 5829 5830 5830 5831 5832 5832 5833 5833 5834 5835 5836 5838 5840 5841 5842 5843 5844 5845 5845 5846 5847 5847 5848 5849 5849 5850 5851 5851 5852 5852 5853 5853 5854 5854 5854 5855 5856 5857 5858 5860 5861 5862 5862 5863 5864 5865 5866 5866 5867 5868 5869 5870 5871 5872
5842 5842 5841 5841 5841 5841 5840 5840 5840 5840 5839 5839 5839 5838 5838 5837 5837 5837 5836 5836 5835 5835 5835 5834 5834 5834 5834 5833 5833 5833 5832 5832 5832 5832 5831 5831 5831 5831 5831 5831 5831 5831 5831 5830 5830 5829 5829 5828 5828 5828 5828 5828 5829 5830 5830 5831 5831 5832 5832 5834 5835 5836 5837 5839 5840 5841 5841 5843 5843 5844 5845 5845 5846 5847 5848 5848 5849 5850 5850 5851 5851 5851 5851 5852 5853 5854 5855 5855 5856 5858 5860 5860 5861 5862 5862 5863 5864 5865 5866 5867 5868 5869 5870
5841 5841 5841 5840 5840 5840 5839 5839 5839 5838 5838 5838 5838 5837 5837 5836 5836 5836 5836 5835 5835 5834 5834 5833 5833 5833 5832 5832 5832 5832 5831 5831 5831 5831 5831 5830 5830 5830 5830 5830 5830 5830 5830 5829 5829 5829 5828 5828 5827 5827 5826 5827 5827 5827 5828 5829 5829 5830 5830 5831 5832 5833 5834 5836 5836 5838 5838 5839 5841 5841 5842 5843 5843 5844 5846 5846 5846 5847 5848 5848 5848 5849 5849 5850 5851 5852 5852 5853 5854 5855 5856 5858 5859 5860 5860 5861 5862 5863 5864 5865 5866 5866 5867
5840 5840 5839 5839 5839 5838 5838 5838 5837 5837 5837 5837 5836 5836 5836 5836 5835 5835 5835 5834 5834 5833 5833 5832 5832 5832 5831 5831 5831 5831 5830 5830 5830 5830 5829 5829 5829 5829 5829 5829 5829 5829 5828 5828 5828 5828 5827 5827 5826 5826 5826 5826 5826 5826 5826 5826 5827 5827 5828 5829 5830 5831 5831 5832 5833 5834 5836 5836 5837 5838 5839 5840 5841 5841 5842 5843 5844 5845 5845 5846 5846 5846 5847 5847 5848 5849 5850 5851 5852 5852 5853 5855 5856 5857 5858 5859 5860 5860 5861 5862 5863 5864 5865
5838 5838 5838 5838 5837 5837 5837 5836 5836 5836 5836 5836 5835 5835 5835 5835 5834 5834 5834 5833 5833 5832 5832 5832 5831 5831 5831 5830 5830 5829 5829 5829 5829 5828 5828 5828 5828 5827 5827 5827 5827 5827 5827 5827 5827 5827 5826 5826 5826 5825 5825 5824 5824 5824 5824 5824 5825 5825 5826 5826 5827 5828 5829 5830 5831 5831 5832 5833 5834 5835 5836 5837 5838 5838 5839 5840 5841 5842 5843 5843 5844 5844 5845 5845 5846 5846 5847 5848 5849 5850 5851 5851 5853 5855 5856 5857 5857 5858 5858 5859 5860 5861 5862
5837 5837 5836 5836 5836 5836 5836 5835 5835 5835 5834 5834 5834 5834 5833 5833 5833 5833 5832 5832 5832 5831 5831 5831 5830 5830 5830 5829 5829 5828 5828 5828 5827 5827 5827 5826 5826 5826 5826 5826 5826 5826 5826 5826 5826 5826 5826 5825 5825 5825 5824 5824 5823 5823 5823 5823 5823 5823 5824 5824 5825 5825 5826 5827 5827 5828 5829 5830 5831 5832 5833 5834 5835 5836 5836 5837 5838 5839 5840 5841 5841 5842 5842 5842 5843 5844 5845 5846 5846 5847 5848 5848 5849 5850 5852 5853 5854 5855 5856 5856 5857 5858 5860
5836 5836 5835 5835 5835 5835 5834 5834 5834 5833 5833 5833 5833 5832 5832 5832 5831 5831 5831 5831 5831 5831 5830 5830 5829 5829 5829 5828 5828 5827 5827 5826 5826 5826 5826 5825 5825 5825 5825 5825 5825 5825 5824 5824 5824 5824 5824 5824 5824 5824 5823 5823 5822 5822 5821 5821 5821 5821 5821 5822 5822 5823 5823 5824 5825 5826 5826 5827 5828 5829 5830 5831 5831 5832 5833 5834 5835 5836 5837 5838 5839 5839 5839 5840 5841 5841 5842 5843 5844 5845 5846 5846 5846 5847 5848 5849 5850 5851 5853 5854 5854 5855 5856
5834 5834 5834 5834 5833 5833 5833 5833 5832 5832 5832 5831 5831 5831 5831 5831 5830 5830 5830 5830 5829 5829 5829 5829 5828 5828 5827 5827 5827 5826 5826 5825 5825 5825 5824 5824 5824 5824 5823 5823 5823 5823 5823 5823 5823 5823 5823 5823 5822 5822 5822 5822 5821 5821 5821 5820 5820 5820 5820 5820 5820 5820 5821 5821 5822 5822 5823 5824 5825 5826 5827 5828 5828 5829 5830 5831 5832 5833 5834 5835 5836 5837 5837 5837 5838 5839 5840 5840 5841 5842 5843 5843 5843 5844 5845 5846 5847 5848 5849 5851 5852 5852 5853
5833 5833 5832 5832 5832 5831 5831 5831 5831 5831 5831 5830 5830 5830 5829 5829 5829 5829 5828 5828 5828 5828 5827 5827 5827 5827 5826 5826 5826 5825 5825 5824 5824 5823 5823 5823 5822 5822 5822 5822 5822 5821 5821 5821 5821 5821 5821 5821 5821 5821 5821 5821 5820 5820 5820 5819 5819 5819 5818 5818 5818 5818 5818 5819 5819 5820 5820 5821 5822 5823 5824 5824 5825 5826 5827 5827 5829 5830 5831 5831 5833 5834 5835 5834 5835 5836 5837 5838 5838 5839 5840 5841 5841 5841 5842 5843 5844 5845 5846 5847 5848 5850 5851
5831 5831 5831 5831 5831 5830 5830 5830 5830 5829 5829 5829 5828 5828 5828 5828 5827 5827 5827 5827 5826 5826 5826 5826 5826 5825 5825 5825 5824 5824 5823 5823 5823 5822 5822 5821 5821 5821 5821 5820 5820 5820 5820 5820 5820 5820 5820 5820 5820 5820 5820 5819 5819 5819 5819 5818 5818 5817 5817 5817 5816 5816 5816 5816 5816 5817 5817 5818 5819 5820 5821 5821 5822 5823 5824 5824 5826 5826 5828 5829 5830 5831 5832 5831 5832 5834 5835 5835 5836 5836 5837 5838 5839 5839 5840 5841 5842 5843 5844 5845 5845 5846 5847
5830 5830 5829 5829 5829 5829 5828 5828 5828 5828 5827 5827 5827 5827 5826 5826 5826 5826 5826 5825 5825 5825 5825 5824 5824 5824 5823 5823 5823 5822 5822 5822 5821 5821 5821 5821 5820 5820 5819 5819 5819 5819 5818 5818 5818 5818 5818 5818 5818 5818 5818 5818 5818 5817 5817 5817 5817 5816 5816 5816 5815 5815 5815 5814 5814 5815 5815 5815 5816 5816 5817 5818 5819 5820 5821 5821 5822 5823 5825 5826 5827 5827 5827 5828 5829 5831 5832 5833 5833 5834 5835 5836 5836 5836 5837 5838 5839 5840 5841 5842 5843 5844 5844
5828 5828 5828 5828 5827 5827 5827 5826 5826 5826 5826 5826 5826 5825 5825 5825 5824 5824 5824 5824 5823 5823 5823 5822 5822 5822 5822 5821 5821 5821 5821 5820 5820 5820 5819 5819 5819 5818 5818 5818 5817 5817 5817 5817 5816 5816 5816 5816 5816 5816 5816 5816 5816 5816 5816 5816 5816 5815 5815 5814 5814 5814 5813 5813 5813 5812 5813 5813 5813 5814 5814 5815 5816 5817 5818 5819 5820 5821 5821 5822 5823 5824 5824 5824 5825 5827 5828 5830 5830 5831 5832 5832 5833 5834 5834 5835 5836 5837 5838 5839 5840 5841 5841
5827 5827 5826 5826 5826 5826 5825 5825 5825 5825 5824 5824 5824 5823 5823 5823 5823 5822 5822 5822 5822 5821 5821 5821 5821 5820 5820 5820 5820 5819 5819 5819 5818 5818 5818 5817 5817 5817 5816 5816 5816 5816 5816 5815 5815 5815 5815 5815 5815 5815 5815 5815 5814 5814 5814 5814 5814 5814 5814 5813 5813 5812 5812 5811 5811 5811 5811 5811 5811 5811 5812 5812 5813 5814 5815 5816 5817 5817 5818 5819 5820 5820 5821 5821 5822 5823 5824 5826 5827 5827 5829 5829 5830 5831 5831 5831 5833 5834 5835 5836 5838 5838 5839
5826 5825 5825 5825 5824 5824 5824 5823 5823 5823 5822 5822 5822 5822 5822 5821 5821 5821 5821 5821 5820 5820 5820 5819 5819 5819 5819 5818 5818 5818 5817 5817 5817 5816 5816 5816 5816 5815 5815 5815 5814 5814 5814 5814 5813 5813 5813 5813 5813 5813 5813 5813 5813 5812 5812 5812 5812 5812 5812 5812 5811 5811 5811 5810 5810 5810 5809 5809 5809 5809 5809 5810 5810 5811 5812 5813 5814 5814 5815 5816 5816 5817 5817 5818 5819 5820 5821 5822 5823 5824 5826 5826 5827 5827 5827 5828 5829 5830 5832 5833 5834 5835 5836
5824 5823 5823 5823 5822 5822 5822 5822 5821 5821 5821 5821 5820 5820 5820 5820 5819 5819 5819 5819 5818 5818 5818 5818 5818 5817 5817 5817 5816 5816 5816 5815 5815 5815 5814 5814 5814 5813 5813 5813 5813 5812 5812 5812 5812 5811 5811 5811 5811 5811 5811 5811 5811 5811 5811 5811 5811 5811 5810 5810 5810 5810 5809 5809 5809 5808 5808 5807 5807 5807 5807 5807 5807 5808 5809 5810 5810 5811 5812 5812 5813 5814 5814 5815 5816 5816 5817 5818 5819 5820 5822 5823 5824 5825 5825 5825 5825 5826 5829 5830 5831 5832 5833
5822 5822 5821 5821 5821 5821 5820 5820 5820 5819 5819 5819 5819 5818 5818 5818 5818 5817 5817 5817 5817 5816 5816 5816 5816 5816 5815 5815 5815 5814 5814 5814 5813 5813 5813 5812 5812 5812 5811 5811 5811 5811 5810 5810 5810 5810 5810 5809 5809 5809 5809 5809 5809 5809 5809 5809 5809 5808 5808 5808 5808 5808 5808 5808 5807 5807 5806 5806 5806 5805 5805 5805 5805 5805 5806 5806 5807 5807 5808 5809 5810 5810 5811 5812 5812 5813 5814 5815 5816 5817 5819 5820 5821 5823 5824 5822 5821 5822 5824 5826 5827 5828 5829
5821 5820 5820 5820 5819 5819 5819 5818 5818 5818 5817 5817 5817 5816 5816 5816 5816 5816 5815 5815 5815 5815 5814 5814 5814 5814 5813 5813 5813 5812 5812 5812 5811 5811 5811 5811 5810 5810 5810 5809 5809 5809 5808 5808 5808 5807 5807 5807 5807 5807 5807 5807 5807 5807 5807 5806 5806 5806 5806 5806 5806 5806 5806 5806 5806 5805 5805 5805 5804 5804 5803 5803 5803 5803 5803 5803 5804 5804 5805 5805 5806 5807 5808 5808 5809 5810 5811 5811 5812 5814 5816 5817 5817 5819 5821 5820 5818 5818 5820 5822 5823 5825 5826
5819 5818 5818 5818 5817 5817 5817 5816 5816 5816 5816 5815 5815 5815 5814 5814 5814 5813 5813 5813 5813 5812 5812 5812 5812 5811 5811 5811 5811 5811 5810 5810 5810 5809 5809 5809 5808 5808 5808 5807 5807 5807 5806 5806 5806 5806 5805 5805 5805 5805 5805 5805 5805 5805 5805 5805 5805 5804 5804 5804 5804 5804 5804 5804 5804 5803 5803 5803 5803 5802 5802 5801 5801 5801 5801 5801 5801 5801 5801 5802 5803 5803 5804 5805 5806 5806 5807 5808 5809 5811 5812 5813 5814 5815 5816 5818 5816 5815 5815 5817 5819 5821 5822
5817 5816 5816 5816 5816 5815 5815 5815 5814 5814 5814 5813 5813 5813 5812 5812 5812 5811 5811 5811 5811 5810 5810 5810 5810 5809 5809 5809 5809 5808 5808 5808 5808 5807 5807 5807 5806 5806 5806 5806 5805 5805 5805 5804 5804 5804 5803 5803 5803 5803 5802 5802 5802 5802 5802 5802 5802 5802 5802 5802 5802 5802 5802 5802 5802 5801 5801 5801 5801 5801 5800 5800 5800 5799 5799 5799 5799 5799 5799 5799 5799 5800 5801 5801 5802 5803 5804 5805 5806 5807 5808 5809 5810 5811 5811 5813 5814 5813 5811 5812 5815 5816 5818
5815 5815 5814 5814 5814 5813 5813 5813 5812 5812 5811 5811 5811 5811 5810 5810 5810 5809 5809 5809 5808 5808 5808 5808 5807 5807 5807 5806 5806 5806 5806 5806 5805 5805 5805 5805 5804 5804 5804 5804 5803 5803 5803 5802 5802 5802 5801 5801 5801 5801 5800 5800 5800 5800 5800 5800 5800 5800 5800 5800 5800 5800 5800 5800 5799 5799 5799 5799 5799 5799 5798 5798 5798 5797 5797 5797 5797 5796 5796 5796 5796 5796 5797 5798 5798 5800 5801 5801 5802 5803 5804 5805 5806 5807 5807 5808 5810 5810 5808 5808 5810 5812 5814
5813 5813 5812 5812 5812 5811 5811 5811 5810 5810 5810 5809 5809 5808 5808 5808 5807 5807 5807 5806 5806 5806 5806 5805 5805 5805 5804 5804 5804 5804 5803 5803 5803 5803 5802 5802 5802 5802 5802 5801 5801 5801 5801 5801 5800 5800 5800 5799 5799 5799 5798 5798 5798 5798 5797 5797 5797 5797 5797 5797 5797 5797 5797 5797 5797 5797 5797 5797 5796 5796 5796 5796 5796 5796 5795 5795 5795 5794 5794 5794 5794 5794 5794 5794 5795 5796 5796 5797 5798 5799 5800 5801 5801 5802 5803 5804 5804 5804 5805 5805 5806 5808 5810
5811 5811 5811 5810 5810 5809 5809 5809 5808 5808 5807 5807 5807 5806 5806 5806 5805 5805 5805 5804 5804 5804 5803 5803 5803 5802 5802 5802 5801 5801 5801 5801 5800 5800 5800 5800 5800 5799 5799 5799 5799 5799 5799 5798 5798 5798 5798 5797 5797 5797 5796 5796 5796 5796 5795 5795 5795 5795 5795 5795 5795 5795 5795 5795 5795 5795 5794 5794 5794 5794 5794 5794 5793 5793 5793 5793 5793 5792 5792 5792 5791 5791 5791 5791 5792 5792 5793 5793 5794 5795 5796 5796 5797 5798 5799 5800 5800 5800 5800 5801 5802 5803 5805
5810 5809 5809 5808 5808 5807 5807 5806 5806 5806 5806 5805 5805 5804 5804 5804 5803 5803 5802 5802 5802 5801 5801 5801 5800 5800 5800 5799 5799 5799 5798 5798 5798 5797 5797 5797 5797 5797 5797 5796 5796 5796 5796 5796 5796 5796 5795 5795 5795 5795 5794 5794 5794 5793 5793 5793 5792 5792 5792 5792 5792 5792 5792 5792 5792 5792 5792 5792 5791 5791 5791 5791 5791 5791 5791 5791 5790 5790 5790 5790 5789 5789 5789 5789 5789 5789 5789 5790 5790 5791 5791 5792 5793 5794 5795 5796 5796 5797 5797 5798 5799 5800 5801
5808 5807 5807 5806 5806 5805 5805 5804 5804 5804 5803 5803 5803 5802 5802 5801 5801 5801 5800 5800 5800 5799 5799 5798 5798 5798 5797 5797 5796 5796 5796 5796 5795 5795 5795 5795 5794 5794 5794 5794 5794 5794 5794 5794 5793 5793 5793 5792 5792 5792 5792 5791 5791 5791 5791 5791 5790 5790 5790 5789 5789 5789 5789 5789 5789 5789 5789 5789 5789 5789 5789 5789 5788 5788 5788 5788 5788 5788 5787 5787 5787 5787 5787 5786 5786 5786 5786 5786 5787 5787 5788 5788 5789 5790 5791 5791 5792 5793 5793 5794 5795 5795 5796
5806 5805 5805 5804 5804 5803 5803 5802 5802 5801 5801 5801 5800 5800 5800 5799 5799 5798 5798 5798 5797 5797 5796 5796 5796 5795 5795 5795 5794 5794 5794 5793 5793 5792 5792 5792 5792 5791 5791 5791 5791 5791 5791 5791 5791 5791 5790 5790 5790 5789 5789 5789 5789 5788 5788 5788 5788 5787 5787 5787 5787 5786 5786 5786 5786 5786 5786 5786 5786 5786 5786 5786 5786 5786 5786 5785 5785 5785 5785 5785 5785 5785 5784 5784 5784 5784 5784 5784 5784 5784 5784 5785 5785 5786 5786 5787 5788 5788 5789 5789 5790 5791 5791
5804 5803 5803 5802 5802 5801 5801 5800 5800 5799 5799 5798 5798 5798 5797 5797 5796 5796 5796 5795 5795 5795 5794 5794 5793 5793 5792 5792 5792 5791 5791 5791 5791 5790 5790 5790 5789 5789 5789 5789 5789 5788 5788 5788 5788 5788 5787 5787 5787 5786 5786 5786 5786 5786 5786 5785 5785 5785 5785 5785 5784 5784 5784 5784 5783 5783 5783 5783 5783 5783 5783 5783 5783 5783 5783 5783 5782 5782 5782 5782 5782 5782 5782 5782 5781 5781 5781 5781 5781 5781 5781 5781 5781 5782 5782 5783 5784 5784 5785 5785 5785 5786 5786
5802 5801 5801 5800 5800 5799 5799 5798 5798 5797 5797 5796 5796 5795 5795 5795 5794 5794 5793 5793 5792 5792 5791 5791 5791 5791 5790 5790 5789 5789 5789 5788 5788 5788 5787 5787 5787 5787 5786 5786 5786 5786 5786 5786 5785 5785 5785 5784 5784 5783 5783 5783 5783 5783 5782 5782 5782 5782 5782 5782 5781 5781 5781 5781 5781 5781 5780 5780 5780 5780 5780 5780 5780 5780 5780 5780 5780 5780 5780 5780 5780 5779 5779 5779 5779 5779 5779 5778 5778 5778 5778 5778 5778 5778 5779 5779 5780 5780 5780 5781 5781 5782 5782
5800 5800 5799 5798 5798 5797 5797 5796 5796 5795 5795 5794 5793 5793 5792 5792 5791 5791 5791 5790 5790 5789 5789 5788 5788 5788 5787 5787 5787 5786 5786 5786 5785 5785 5785 5785 5785 5784 5784 5784 5783 5783 5783 5783 5782 5782 5782 5781 5781 5781 5780 5780 5780 5780 5780 5779 5779 5779 5779 5779 5779 5779 5778 5778 5778 5778 5777 5777 5777 5777 5777 5777 5777 5777 5777 5777 5777 5777 5777 5777 5777 5777 5776 5776 5776 5776 5776 5776 5776 5776 5775 5775 5775 5775 5775 5776 5776 5776 5776 5776 5777 5777 5778
5798 5797 5797 5796 5796 5795 5795 5794 5794 5793 5792 5792 5791 5791 5790 5790 5789 5789 5788 5788 5787 5787 5786 5786 5785 5785 5785 5784 5784 5784 5783 5783 5783 5782 5782 5782 5782 5781 5781 5781 5781 5781 5780 5780 5780 5779 5779 5779 5778 5778 5777 5777 5777 5777 5776 5776 5776 5776 5776 5776 5776 5775 5775 5775 5775 5775 5775 5775 5774 5774 5774 5774 5774 5774 5774 5774 5774 5774 5774 5774 5774 5774 5774 5774 5774 5773 5773 5773 5773 5773 5772 5772 5772 5772 5772 5772 5772 5772 5773 5773 5773 5774 5774
5796 5796 5795 5794 5794 5793 5792 5792 5791 5791 5790 5790 5789 5788 5788 5787 5786 5786 5786 5785 5785 5784 5783 5783 5782 5782 5782 5781 5781 5781 5781 5780 5780 5780 5779 5779 5779 5779 5778 5778 5778 5777 5777 5777 5776 5776 5776 5776 5775 5775 5775 5774 5774 5774 5773 5773 5773 5773 5773 5772 5772 5772 5772 5772 5772 5772 5772 5772 5771 5771 5771 5771 5771 5771 5771 5771 5771 5771 5771 5771 5771 5771 5771 5771 5771 5771 5770 5770 5770 5770 5770 5770 5769 5769 5769 5769 5769 5769 5769 5769 5770 5770 5770
5794 5793 5793 5792 5791 5791 5791 5790 5789 5789 5788 5787 5787 5786 5786 5785 5784 5783 5783 5782 5782 5781 5781 5780 5780 5780 5779 5779 5778 5778 5778 5777 5777 5777 5776 5776 5776 5776 5776 5775 5775 5774 5774 5774 5773 5773 5773 5772 5772 5772 5771 5771 5771 5771 5771 5770 5770 5770 5770 5769 5769 5769 5769 5769 5769 5769 5769 5769 5768 5768 5768 5768 5768 5768 5767 5767 5767 5767 5767 5767 5767 5767 5767 5767 5767 5767 5767 5767 5767 5767 5767 5766 5766 5766 5766 5766 5766 5766 5766 5766 5766 5766 5766
5792 5791 5791 5790 5790 5789 5788 5788 5787 5786 5786 5785 5784 5784 5783 5782 5781 5781 5780 5780 5779 5779 5778 5777 5777 5777 5776 5776 5776 5775 5775 5775 5774 5774 5774 5773 5773 5773 5772 5772 5772 5771 5771 5771 5770 5770 5770 5769 5769 5769 5768 5768 5768 5767 5767 5767 5767 5767 5766 5766 5766 5766 5766 5766 5766 5766 5766 5765 5765 5765 5765 5765 5765 5765 5765 5764 5764 5764 5764 5764 5764 5764 5764 5764 5764 5764 5764 5764 5764 5764 5764 5763 5763 5763 5763 5763 5763 5763 5763 5763 5763 5763 5763
5790 5789 5789 5788 5787 5787 5786 5786 5785 5784 5783 5783 5782 5781 5781 5780 5779 5778 5778 5777 5776 5776 5775 5775 5774 5774 5773 5773 5773 5772 5772 5771 5771 5771 5771 5771 5770 5770 5769 5769 5769 5768 5768 5767 5767 5767 5767 5766 5766 5766 5765 5765 5765 5765 5764 5764 5764 5764 5763 5763 5763 5763 5763 5763 5763 5763 5762 5762 5762 5762 5762 5761 5761 5761 5761 5761 5761 5761 5761 5761 5761 5760 5760 5760 5761 5761 5761 5761 5761 5761 5761 5761 5760 5760 5760 5760 5760 5759 5759 5759 5759 5759 5759
5788 5787 5786 5786 5785 5784 5784 5783 5782 5782 5781 5780 5780 5779 5778 5777 5777 5776 5775 5774 5774 5773 5772 5772 5771 5771 5770 5770 5770 5770 5769 5769 5768 5768 5767 5767 5767 5766 5766 5766 5766 5765 5765 5765 5764 5764 5764 5764 5763 5763 5762 5762 5761 5761 5761 5761 5761 5761 5761 5760 5760 5760 5760 5760 5760 5760 5760 5759 5759 5759 5759 5759 5758 5758 5758 5758 5758 5758 5758 5757 5757 5757 5757 5757 5757 5757 5757 5757 5757 5757 5757 5757 5757 5757 5756 5756 5756 5756 5756 5756 5756 5756 5756
5786 5785 5784 5783 5783 5782 5781 5781 5780 5779 5779 5778 5777 5776 5776 5775 5774 5773 5772 5772 5771 5770 5770 5769 5768 5768 5767 5767 5767 5766 5766 5766 5765 5765 5764 5764 5764 5763 5763 5763 5762 5762 5761 5761 5761 5761 5761 5761 5760 5760 5759 5759 5759 5759 5758 5758 5758 5758 5757 5757 5757 5757 5757 5756 5756 5756 5756 5756 5756 5756 5756 5756 5756 5755 5755 5755 5755 5755 5754 5754 5754 5754 5754 5753 5753 5753 5753 5753 5753 5753 5753 5753 5753 5753 5753 5753 5753 5752 5752 5752 5752 5752 5752
5783 5782 5782 5781 5780 5780 5779 5778 5777 5777 5776 5775 5775 5774 5773 5772 5771 5771 5770 5769 5768 5767 5767 5766 5766 5765 5764 5764 5764 5764 5763 5763 5762 5762 5761 5761 5761 5760 5760 5759 5759 5759 5758 5758 5758 5758 5758 5758 5757 5757 5757 5756 5756 5756 5756 5755 5755 5755 5755 5754 5754 5754 5754 5753 5753 5753 5753 5753 5753 5753 5753 5753 5752 5752 5752 5752 5752 5751 5751 5751 5751 5751 5751 5750 5750 5750 5750 5750 5749 5749 5749 5750 5750 5750 5750 5750 5749 5749 5749 5749 5748 5748 5748
5781 5780 5779 5779 5778 5777 5776 5776 5775 5774 5773 5773 5772 5771 5771 5770 5769 5768 5767 5766 5766 5765 5764 5763 5763 5762 5761 5761 5761 5761 5760 5760 5760 5759 5759 5758 5758 5757 5757 5756 5756 5756 5755 5755 5755 5755 5755 5755 5755 5754 5754 5754 5753 5753 5753 5752 5752 5752 5751 5751 5751 5751 5751 5750 5750 5750 5750 5750 5750 5749 5749 5749 5749 5749 5749 5749 5748 5748 5748 5748 5748 5747 5747 5747 5747 5746 5746 5746 5746 5746 5745 5745 5746 5746 5746 5746 5746 5746 5745 5745 5745 5745 5745
5779 5778 5777 5776 5776 5775 5774 5773 5772 5771 5771 5770 5769 5768 5768 5767 5766 5765 5765 5764 5763 5762 5761 5761 5760 5759 5759 5758 5758 5757 5757 5757 5757 5757 5756 5756 5756 5755 5755 5754 5753 5753 5752 5752 5752 5752 5752 5752 5751 5751 5751 5751 5751 5750 5750 5750 5749 5749 5749 5748 5748 5748 5747 5747 5747 5747 5747 5746 5746 5746 5746 5746 5746 5746 5745 5745 5745 5745 5745 5744 5744 5744 5744 5744 5743 5743 5743 5742 5742 5742 5741 5741 5741 5741 5741 5741 5741 5741 5741 5741 5741 5741 5741
5776 5776 5775 5774 5773 5772 5771 5771 5770 5769 5768 5767 5766 5766 5765 5764 5763 5763 5762 5761 5760 5759 5759 5758 5757 5756 5756 5756 5755 5754 5754 5754 5754 5754 5754 5754 5753 5753 5752 5751 5751 5751 5750 5749 5749 5749 5749 5749 5749 5748 5748 5748 5748 5747 5747 5747 5746 5746 5746 5746 5745 5745 5744 5744 5744 5744 5743 5743 5743 5743 5742 5742 5742 5742 5741 5741 5741 5741 5741 5741 5740 5740 5740 5740 5740 5740 5739 5739 5738 5738 5738 5737 5737 5737 5737 5737 5737 5737 5737 5737 5737 5737 5737
5774 5773 5772 5771 5771 5770 5769 5768 5767 5766 5765 5764 5764 5763 5762 5761 5761 5760 5759 5758 5757 5756 5756 5755 5754 5754 5753 5753 5752 5751 5751 5751 5751 5751 5751 5751 5751 5750 5750 5749 5748 5748 5747 5746 5746 5746 5746 5746 5746 5746 5745 5745 5745 5745 5744 5744 5744 5743 5743 5743 5742 5742 5741 5741 5741 5741 5740 5740 5740 5739 5739 5739 5739 5738 5738 5737 5737 5737 5736 5736 5736 5736 5736 5736 5735 5735 5735 5735 5735 5734 5734 5734 5733 5733 5732 5732 5732 5732 5732 5732 5732 5732 5732
5771 5771 5770 5769 5768 5767 5766 5765 5764 5763 5762 5761 5761 5760 5759 5758 5758 5757 5756 5755 5755 5754 5753 5752 5752 5751 5750 5750 5749 5749 5748 5748 5748 5748 5748 5748 5748 5748 5747 5747 5746 5745 5745 5744 5743 5743 5744 5743 5743 5743 5742 5742 5742 5741 5741 5741 5741 5741 5740 5740 5739 5739 5739 5738 5738 5737 5737 5737 5736 5736 5736 5736 5735 5735 5735 5734 5734 5733 5732 5732 5731 5731 5731 5731 5730 5730 5730 5730 5730 5730 5730 5729 5729 5729 5728 5728 5728 5727 5727 5727 5727 5727 5727
5769 5768 5767 5766 5765 5765 5764 5763 5761 5761 5760 5759 5758 5757 5756 5756 5755 5754 5753 5752 5751 5751 5750 5750 5749 5748 5748 5747 5746 5746 5745 5745 5745 5745 5745 5745 5745 5745 5745 5745 5745 5744 5743 5742 5741 5740 5740 5741 5741 5740 5740 5739 5739 5739 5738 5738 5738 5737 5737 5737 5736 5736 5736 5736 5735 5735 5734 5734 5733 5733 5733 5732 5732 5731 5731 5731 5730 5730 5729 5728 5728 5727 5726 5726 5726 5725 5725 5725 5724 5724 5724 5724 5724 5724 5723 5723 5723 5723 5723 5722 5722 5722 5722
5766 5766 5765 5764 5763 5762 5761 5760 5759 5758 5757 5756 5755 5754 5753 5752 5752 5751 5750 5750 5749 5748 5747 5746 5746 5746 5745 5745 5744 5743 5742 5742 5742 5742 5742 5742 5742 5742 5742 5742 5742 5742 5741 5741 5740 5738 5738 5737 5738 5738 5737 5736 5736 5736 5736 5736 5735 5735 5734 5734 5734 5733 5733 5733 5732 5732 5731 5731 5731 5730 5730 5729 5729 5728 5728 5727 5727 5726 5726 5725 5724 5724 5723 5722 5721 5721 5720 5720 5719 5719 5718 5718 5718 5718 5718 5718 5718 5718 5718 5717 5717 5717 5717
5764 5763 5762 5761 5760 5759 5758 5757 5756 5755 5754 5753 5752 5751 5750 5750 5749 5748 5747 5746 5746 5745 5744 5743 5743 5742 5742 5742 5741 5740 5740 5739 5739 5739 5739 5739 5739 5739 5739 5739 5739 5738 5738 5738 5738 5737 5736 5736 5735 5734 5734 5734 5733 5733 5733 5733 5732 5732 5731 5731 5731 5730 5730 5730 5729 5729 5728 5728 5727 5727 5726 5726 5726 5725 5725 5724 5723 5723 5722 5721 5721 5720 5720 5719 5718 5717 5716 5716 5715 5714 5714 5713 5713 5712 5712 5712 5712 5712 5712 5712 5712 5712 5712
5761 5760 5759 5758 5757 5756 5755 5754 5753 5752 5751 5750 5749 5748 5747 5746 5746 5745 5744 5743 5743 5742 5741 5741 5740 5740 5739 5738 5738 5737 5737 5736 5736 5736 5735 5735 5735 5736 5735 5736 5736 5735 5735 5735 5735 5735 5735 5734 5734 5733 5732 5731 5731 5731 5730 5730 5729 5729 5728 5728 5728 5727 5727 5726 5726 5726 5725 5725 5724 5724 5723 5723 5722 5722 5721 5721 5720 5719 5719 5718 5717 5716 5716 5715 5715 5714 5713 5712 5711 5711 5710 5709 5708 5707 5707 5706 5706 5706 5706 5706 5706 5706 5706
5758 5757 5756 5755 5754 5753 5752 5751 5750 5749 5748 5747 5746 5745 5744 5743 5742 5741 5741 5740 5739 5739 5738 5737 5737 5736 5736 5736 5735 5734 5734 5733 5732 5732 5732 5732 5732 5732 5731 5731 5732 5732 5732 5732 5732 5731 5731 5731 5731 5731 5731 5730 5729 5728 5728 5727 5726 5726 5726 5725 5725 5724 5724 5724 5723 5723 5722 5722 5721 5721 5720 5720 5719 5719 5718 5717 5716 5716 5715 5714 5713 5713 5712 5711 5711 5710 5710 5709 5708 5707 5706 5705 5705 5704 5703 5702 5701 5701 5700 5700 5700 5700 5699
5756 5755 5753 5752 5751 5750 5749 5748 5747 5746 5745 5744 5743 5742 5741 5740 5739 5739 5738 5737 5736 5736 5735 5734 5734 5733 5733 5732 5732 5731 5731 5730 5729 5729 5729 5728 5728 5728 5728 5728 5728 5728 5728 5728 5728 5729 5728 5728 5728 5729 5729 5728 5727 5726 5726 5725 5724 5723 5723 5722 5722 5721 5721 5721 5720 5720 5719 5719 5718 5718 5717 5716 5716 5715 5715 5714 5713 5712 5711 5711 5710 5709 5708 5707 5706 5706 5705 5705 5704 5703 5702 5701 5701 5700 5699 5698 5697 5696 5696 5695 5695 5694 5694
5752 5751 5750 5749 5748 5747 5746 5745 5744 5743 5742 5741 5740 5739 5738 5737 5736 5736 5735 5734 5733 5732 5731 5731 5730 5730 5729 5729 5729 5728 5727 5727 5726 5726 5725 5725 5724 5724 5724 5724 5724 5724 5724 5724 5724 5724 5724 5724 5725 5725 5726 5726 5725 5724 5722 5722 5722 5721 5720 5719 5719 5718 5718 5718 5717 5716 5716 5716 5715 5715 5714 5713 5713 5712 5711 5711 5710 5709 5708 5707 5706 5705 5704 5703 5702 5702 5701 5700 5699 5699 5698 5697 5696 5696 5695 5694 5693 5692 5692 5691 5690 5690 5689
5749 5748 5747 5746 5745 5744 5743 5741 5741 5740 5739 5738 5737 5736 5735 5734 5733 5732 5732 5731 5730 5729 5728 5728 5727 5726 5726 5726 5726 5725 5724 5724 5723 5723 5722 5722 5721 5721 5721 5720 5720 5720 5720 5720 5720 5719 5719 5719 5720 5720 5721 5722 5723 5722 5721 5719 5718 5718 5717 5716 5716 5715 5715 5714 5714 5713 5713 5712 5712 5711 5711 5710 5709 5708 5707 5707 5706 5705 5704 5703 5702 5701 5700 5699 5698 5697 5696 5696 5695 5694 5693 5692 5691 5691 5690 5689 5689 5688 5687 5686 5686 5685 5685
5746 5745 5744 5743 5741 5741 5739 5738 5737 5736 5735 5735 5734 5733 5732 5731 5730 5730 5729 5728 5727 5726 5725 5725 5724 5723 5723 5722 5722 5722 5721 5721 5721 5720 5720 5719 5718 5718 5717 5717 5716 5716 5716 5715 5715 5715 5715 5714 5714 5715 5716 5716 5718 5719 5719 5717 5715 5714 5713 5712 5712 5711 5711 5711 5710 5709 5709 5708 5707 5707 5706 5706 5705 5704 5703 5702 5701 5701 5700 5698 5697 5696 5695 5694 5693 5692 5691 5690 5689 5688 5688 5687 5686 5685 5684 5684 5683 5682 5682 5681 5681 5680 5680
5743 5742 5741 5740 5738 5737 5736 5735 5734 5733 5732 5731 5731 5730 5729 5728 5727 5726 5726 5725 5724 5723 5722 5721 5721 5720 5720 5719 5719 5719 5719 5718 5717 5717 5716 5716 5715 5715 5714 5714 5713 5713 5712 5711 5711 5711 5710 5710 5709 5709 5709 5710 5711 5713 5714 5714 5713 5711 5710 5708 5708 5707 5707 5706 5706 5705 5704 5703 5703 5702 5701 5701 5700 5699 5698 5697 5696 5695 5694 5693 5692 5691 5689 5688 5687 5686 5685 5684 5683 5682 5681 5681 5680 5679 5678 5678 5677 5676 5676 5676 5675 5674 5674